CW9315 Weather Reports


time (UTC)temp
C
wind
direction
speed
KPH
gust
KPH
rain 1hr
cm
rain 24hr
cm
rain mn
cm
humidity
%
barometer
mb
20260505101538 12 173 0.0 0.0 0.00 0.00 0.00 63 1000.9
20260505100033 12 163 0.0 0.0 0.00 0.00 0.00 62 1001.0
20260505094530 13 172 0.0 0.0 0.00 0.00 0.00 60 1001.1
20260505093029 13 135 1.6 0.0 0.00 0.00 0.00 60 1001.3
20260505091533 13 165 0.0 0.0 0.00 0.00 0.00 59 1001.4
20260505090041 13 138 1.6 0.0 0.00 0.00 0.00 58 1001.4
20260505084525 13 196 1.6 0.0 0.00 0.00 0.00 58 1001.4
20260505083026 13 172 0.0 0.0 0.00 0.00 0.00 58 1001.4
20260505081531 13 152 0.0 0.0 0.00 0.00 0.00 60 1001.5
20260505080041 13 133 0.0 0.0 0.00 0.00 0.00 60 1001.7
20260505074519 13 138 1.6 0.0 0.00 0.00 0.00 59 1001.8
20260505073017 13 130 0.0 0.0 0.00 0.00 0.00 60 1002.0
20260505071514 14 164 1.6 0.0 0.00 0.00 0.00 60 1002.1
20260505070018 14 159 0.0 0.0 0.00 0.00 0.00 60 1002.1
20260505064512 14 150 0.0 0.0 0.00 0.00 0.00 61 1002.1
20260505063011 14 145 0.0 0.0 0.00 0.00 0.00 61 1002.1
20260505061515 14 202 0.0 0.0 0.00 0.00 0.00 61 1002.0
20260505060015 14 201 1.6 0.0 0.00 0.00 0.00 59 1001.9
20260505054507 14 213 0.0 0.0 0.00 0.00 0.00 58 1001.6
20260505053012 14 213 0.0 0.0 0.00 0.00 0.00 57 1001.2
20260505051504 15 149 0.0 0.0 0.00 0.00 0.00 54 1001.1
20260505041502 16 175 0.0 0.0 0.00 0.00 0.00 46 1000.1
20260505040002 16 153 0.0 0.0 0.00 0.00 0.00 46 999.9
20260505034505 16 196 0.0 0.0 0.00 0.00 0.00 44 999.8
20260505033001 16 181 0.0 0.0 0.00 0.00 0.00 43 999.6
20260505031601 16 181 0.0 0.0 0.00 0.00 0.00 42 999.3
20260505030100 17 181 0.0 0.0 0.00 0.00 0.00 40 999.1
20260505024559 17 181 0.0 0.0 0.00 0.00 0.00 38 998.9
20260505023059 18 182 0.0 0.0 0.00 0.00 0.00 37 998.8
20260505021559 19 193 0.0 0.0 0.00 0.00 0.00 36 998.7
20260505020058 20 173 0.0 0.0 0.00 0.00 0.00 34 998.6
20260505014623 20 178 0.0 0.0 0.00 0.00 0.00 34 998.5
20260505013057 20 194 0.0 0.0 0.00 0.00 0.00 34 998.4
20260505011604 20 186 0.0 0.0 0.00 0.00 0.00 33 998.6
20260505010057 21 188 3.2 0.0 0.00 0.00 0.00 32 998.6
20260505004554 21 216 1.6 0.0 0.00 0.00 0.00 30 998.7
20260505003053 22 163 3.2 0.0 0.00 0.00 0.00 30 998.8
20260505001604 22 250 3.2 0.0 0.00 0.00 0.00 29 999.0
20260505000115 22 249 3.2 0.0 0.00 0.00 0.00 30 999.0
20260504234607 22 250 8.0 0.0 0.00 0.00 0.00 28 999.0
20260504233102 22 256 6.4 0.0 0.00 0.00 0.00 31 999.2
20260504231549 22 252 6.4 0.0 0.00 0.00 0.00 31 999.1
20260504230049 21 209 11.3 0.0 0.00 0.00 0.00 32 999.1
20260504224605 22 240 8.0 0.0 0.00 0.00 0.00 32 999.1
20260504223048 22 278 6.4 0.0 0.00 0.00 0.00 31 999.1
20260504221547 23 303 4.8 0.0 0.00 0.00 0.00 26 999.1
20260504220046 23 288 0.0 0.0 0.00 0.00 0.00 24 999.1
20260504214544 23 302 1.6 0.0 0.00 0.00 0.00 27 999.4
20260504213100 23 294 0.0 0.0 0.00 0.00 0.00 27 999.7
20260504211540 23 271 1.6 0.0 0.00 0.00 0.00 28 1000.0
20260504210039 23 270 1.6 0.0 0.00 0.00 0.00 24 1000.1
20260504204536 23 333 0.0 0.0 0.00 0.00 0.00 29 1000.2
20260504203035 23 198 1.6 0.0 0.00 0.00 0.00 27 1000.4
20260504201534 22 306 1.6 0.0 0.00 0.00 0.00 29 1000.5
20260504200030 22 307 1.6 0.0 0.00 0.00 0.00 30 1000.7
20260504194528 22 268 1.6 0.0 0.00 0.00 0.00 28 1000.8
20260504193025 22 182 1.6 0.0 0.00 0.00 0.00 29 1001.1
20260504191524 22 298 1.6 0.0 0.00 0.00 0.00 28 1001.2
20260504190022 22 284 1.6 0.0 0.00 0.00 0.00 30 1001.4
20260504184521 22 284 1.6 0.0 0.00 0.00 0.00 31 1001.5
20260504183022 21 258 3.2 0.0 0.00 0.00 0.00 33 1001.7
20260504181516 21 216 0.0 0.0 0.00 0.00 0.00 31 1001.9
20260504180015 21 225 1.6 0.0 0.00 0.00 0.00 30 1002.1
20260504174512 21 129 0.0 0.0 0.00 0.00 0.00 34 1002.2
20260504173022 20 343 0.0 0.0 0.00 0.00 0.00 35 1002.3
20260504171510 20 186 0.0 0.0 0.00 0.00 0.00 36 1002.4